Japanese version Home page |
Updated on January 1, 2010 |
Profile
|
Orbital ElementsEpoch 1996 Aug. 25.0 TT = JDT 2450320.5 T 1996 Sept. 4.60151 TT MPC q 1.5710698 (2000.0) P Q n 0.15188475 Peri. 304.22611 +0.47416414 -0.85468305 a 3.4790442 Node 116.10224 +0.86521982 +0.40789399 e 0.5484191 Incl. 13.61502 +0.16298167 +0.32115321 P 6.49
|
Magnitudes Graphm1 = 13.2 + 5 log d + 10.0 log r
|
The orbital elements are published on M.P.E.C. 2009-X47.
|